Wetterdaten: Donnerstag, 02.10.2014
Datum Zeit Temp. A. Feuchte A. Luftdruck Regen Wind Richtung Richtung Sonnenschein ET UV Solar Taupunkt Windchill Windben Empfang
02.10.2014 00:00 14,0 C 89 % 1025,6 hPa 0,0 l/m 0,0 km/h (0 Bft) S 179 0 min 0,000 mm 0,0 UV-I 0 W/m 12,2 C 14,0 C 0,0 km/h (0 Bft) 0,00 %
02.10.2014 00:15 14,0 C 89 % 1025,6 hPa 0,0 l/m 0,0 km/h (0 Bft) S 175 0 min 0,000 mm 0,0 UV-I 0 W/m 12,2 C 14,0 C 0,0 km/h (0 Bft) 0,00 %
02.10.2014 00:30 13,9 C 89 % 1025,9 hPa 0,0 l/m 0,0 km/h (0 Bft) SW 214 0 min 0,000 mm 0,0 UV-I 0 W/m 12,1 C 13,9 C 0,0 km/h (0 Bft) 0,00 %
02.10.2014 00:45 13,8 C 89 % 1026,0 hPa 0,0 l/m 0,0 km/h (0 Bft) W-SW 250 0 min 0,000 mm 0,0 UV-I 0 W/m 12,0 C 13,8 C 0,0 km/h (0 Bft) 0,00 %
02.10.2014 01:00 13,7 C 89 % 1025,9 hPa 0,0 l/m 0,0 km/h (0 Bft) S 172 0 min 0,000 mm 0,0 UV-I 0 W/m 11,9 C 13,7 C 0,0 km/h (0 Bft) 0,00 %
02.10.2014 01:15 13,6 C 89 % 1026,0 hPa 0,0 l/m 0,0 km/h (0 Bft) S-SW 193 0 min 0,000 mm 0,0 UV-I 0 W/m 11,8 C 13,6 C 0,0 km/h (0 Bft) 0,00 %
02.10.2014 01:30 13,6 C 89 % 1026,4 hPa 0,0 l/m 0,0 km/h (0 Bft) S 175 0 min 0,000 mm 0,0 UV-I 0 W/m 11,8 C 13,6 C 0,0 km/h (0 Bft) 0,00 %
02.10.2014 01:45 13,5 C 89 % 1026,6 hPa 0,0 l/m 0,0 km/h (0 Bft) SO 142 0 min 0,000 mm 0,0 UV-I 0 W/m 11,7 C 13,5 C 0,0 km/h (0 Bft) 0,00 %
02.10.2014 02:00 13,6 C 89 % 1026,3 hPa 0,0 l/m 0,0 km/h (0 Bft) S-SW 202 0 min 0,000 mm 0,0 UV-I 0 W/m 11,8 C 13,6 C 0,0 km/h (0 Bft) 0,00 %
02.10.2014 02:15 13,6 C 89 % 1026,3 hPa 0,0 l/m 0,0 km/h (0 Bft) W-SW 252 0 min 0,000 mm 0,0 UV-I 0 W/m 11,8 C 13,6 C 0,0 km/h (0 Bft) 0,00 %
02.10.2014 02:30 13,6 C 89 % 1026,2 hPa 0,0 l/m 0,0 km/h (0 Bft) SW 226 0 min 0,000 mm 0,0 UV-I 0 W/m 11,8 C 13,6 C 0,0 km/h (0 Bft) 0,00 %
02.10.2014 02:45 13,6 C 89 % 1026,5 hPa 0,0 l/m 0,0 km/h (0 Bft) S 180 0 min 0,000 mm 0,0 UV-I 0 W/m 11,8 C 13,6 C 0,0 km/h (0 Bft) 0,00 %
02.10.2014 03:00 13,5 C 89 % 1026,3 hPa 0,0 l/m 0,0 km/h (0 Bft) S 181 0 min 0,000 mm 0,0 UV-I 0 W/m 11,7 C 13,5 C 0,0 km/h (0 Bft) 0,00 %
02.10.2014 03:15 13,5 C 90 % 1026,4 hPa 0,0 l/m 0,0 km/h (0 Bft) S 181 0 min 0,000 mm 0,0 UV-I 0 W/m 11,9 C 13,5 C 0,0 km/h (0 Bft) 0,00 %
02.10.2014 03:30 13,4 C 90 % 1026,5 hPa 0,0 l/m 0,0 km/h (0 Bft) S 184 0 min 0,000 mm 0,0 UV-I 0 W/m 11,8 C 13,4 C 0,0 km/h (0 Bft) 0,00 %
02.10.2014 03:45 13,3 C 90 % 1026,5 hPa 0,0 l/m 0,0 km/h (0 Bft) S-SW 201 0 min 0,000 mm 0,0 UV-I 0 W/m 11,7 C 13,3 C 0,0 km/h (0 Bft) 0,00 %
02.10.2014 04:00 13,4 C 90 % 1026,5 hPa 0,0 l/m 0,0 km/h (0 Bft) S-SW 199 0 min 0,000 mm 0,0 UV-I 0 W/m 11,8 C 13,4 C 0,0 km/h (0 Bft) 0,00 %
02.10.2014 04:15 13,4 C 90 % 1026,8 hPa 0,0 l/m 0,0 km/h (0 Bft) SW 224 0 min 0,000 mm 0,0 UV-I 0 W/m 11,8 C 13,4 C 0,0 km/h (0 Bft) 0,00 %
02.10.2014 04:30 13,4 C 90 % 1026,8 hPa 0,0 l/m 0,0 km/h (0 Bft) S-SW 193 0 min 0,000 mm 0,0 UV-I 0 W/m 11,8 C 13,4 C 0,0 km/h (0 Bft) 0,00 %
02.10.2014 04:45 13,3 C 90 % 1026,8 hPa 0,0 l/m 0,0 km/h (0 Bft) SW 217 0 min 0,000 mm 0,0 UV-I 0 W/m 11,7 C 13,3 C 0,0 km/h (0 Bft) 0,00 %
02.10.2014 05:00 13,3 C 89 % 1026,8 hPa 0,0 l/m 0,0 km/h (0 Bft) S 178 0 min 0,000 mm 0,0 UV-I 0 W/m 11,5 C 13,3 C 0,0 km/h (0 Bft) 0,00 %
02.10.2014 05:15 13,2 C 89 % 1026,8 hPa 0,0 l/m 0,0 km/h (0 Bft) S 179 0 min 0,000 mm 0,0 UV-I 0 W/m 11,4 C 13,2 C 0,0 km/h (0 Bft) 0,00 %
02.10.2014 05:30 13,1 C 89 % 1026,8 hPa 0,0 l/m 0,0 km/h (0 Bft) S-SW 193 0 min 0,000 mm 0,0 UV-I 0 W/m 11,3 C 13,1 C 0,0 km/h (0 Bft) 0,00 %
02.10.2014 05:45 13,0 C 89 % 1026,9 hPa 0,0 l/m 0,0 km/h (0 Bft) S-SW 213 0 min 0,000 mm 0,0 UV-I 0 W/m 11,2 C 13,0 C 0,0 km/h (0 Bft) 0,00 %
02.10.2014 06:00 12,9 C 89 % 1027,1 hPa 0,0 l/m 0,0 km/h (0 Bft) S-SW 213 0 min 0,000 mm 0,0 UV-I 0 W/m 11,1 C 12,9 C 0,0 km/h (0 Bft) 0,00 %
02.10.2014 06:15 12,7 C 89 % 1027,2 hPa 0,0 l/m 0,0 km/h (0 Bft) S 173 0 min 0,000 mm 0,0 UV-I 0 W/m 10,9 C 12,7 C 0,0 km/h (0 Bft) 0,00 %
02.10.2014 06:30 12,5 C 89 % 1027,2 hPa 0,0 l/m 0,0 km/h (0 Bft) S-SW 201 0 min 0,000 mm 0,0 UV-I 0 W/m 10,7 C 12,5 C 0,0 km/h (0 Bft) 0,00 %
02.10.2014 06:45 12,4 C 89 % 1027,5 hPa 0,0 l/m 0,0 km/h (0 Bft) S 178 0 min 0,000 mm 0,0 UV-I 0 W/m 10,6 C 12,4 C 0,0 km/h (0 Bft) 0,00 %
02.10.2014 07:00 12,5 C 89 % 1027,7 hPa 0,0 l/m 0,0 km/h (0 Bft) S 187 0 min 0,000 mm 0,0 UV-I 0 W/m 10,7 C 12,5 C 0,0 km/h (0 Bft) 0,00 %
02.10.2014 07:15 12,6 C 89 % 1027,8 hPa 0,0 l/m 0,0 km/h (0 Bft) S-SW 203 0 min 0,000 mm 0,0 UV-I 0 W/m 10,8 C 12,6 C 0,0 km/h (0 Bft) 0,00 %
02.10.2014 07:30 12,9 C 89 % 1027,9 hPa 0,0 l/m 0,0 km/h (0 Bft) SW 222 0 min 0,000 mm 0,0 UV-I 10 W/m 11,1 C 12,9 C 0,0 km/h (0 Bft) 0,00 %
02.10.2014 07:45 13,1 C 89 % 1028,0 hPa 0,0 l/m 0,0 km/h (0 Bft) SW 218 0 min 0,000 mm 0,0 UV-I 40 W/m 11,3 C 13,1 C 0,0 km/h (0 Bft) 0,00 %
02.10.2014 08:00 13,2 C 90 % 1027,9 hPa 0,0 l/m 0,0 km/h (0 Bft) S 175 0 min 0,000 mm 1,0 UV-I 51 W/m 11,6 C 13,2 C 0,0 km/h (0 Bft) 0,00 %
02.10.2014 08:15 13,2 C 89 % 1028,0 hPa 0,0 l/m 0,0 km/h (0 Bft) SW 226 0 min 0,000 mm 1,0 UV-I 59 W/m 11,4 C 13,2 C 0,0 km/h (0 Bft) 0,00 %
02.10.2014 08:30 13,5 C 89 % 1027,9 hPa 0,0 l/m 0,0 km/h (0 Bft) S 186 0 min 0,000 mm 1,0 UV-I 100 W/m 11,7 C 13,5 C 0,0 km/h (0 Bft) 0,00 %
02.10.2014 08:45 13,6 C 89 % 1027,9 hPa 0,0 l/m 0,0 km/h (0 Bft) SW 229 0 min 0,000 mm 1,0 UV-I 115 W/m 11,8 C 13,6 C 0,0 km/h (0 Bft) 0,00 %
02.10.2014 09:00 13,9 C 89 % 1027,9 hPa 0,0 l/m 0,0 km/h (0 Bft) S 175 0 min 0,000 mm 1,0 UV-I 134 W/m 12,1 C 13,9 C 0,0 km/h (0 Bft) 0,00 %
02.10.2014 09:15 14,3 C 88 % 1027,9 hPa 0,0 l/m 0,0 km/h (0 Bft) S 176 0 min 0,000 mm 2,0 UV-I 142 W/m 12,3 C 14,3 C 0,0 km/h (0 Bft) 0,00 %
02.10.2014 09:30 14,5 C 87 % 1027,8 hPa 0,0 l/m 0,0 km/h (0 Bft) O-SO 123 0 min 0,000 mm 2,0 UV-I 164 W/m 12,4 C 14,5 C 0,0 km/h (0 Bft) 0,00 %
02.10.2014 09:45 15,0 C 83 % 1027,5 hPa 0,0 l/m 0,0 km/h (0 Bft) S 186 15 min 0,000 mm 2,0 UV-I 238 W/m 12,1 C 15,0 C 0,0 km/h (0 Bft) 0,00 %
02.10.2014 10:00 16,0 C 79 % 1027,5 hPa 0,0 l/m 0,0 km/h (0 Bft) S 176 0 min 0,000 mm 2,0 UV-I 189 W/m 12,4 C 16,0 C 0,0 km/h (0 Bft) 0,00 %
02.10.2014 10:15 16,6 C 76 % 1027,3 hPa 0,0 l/m 0,0 km/h (0 Bft) S-SW 207 0 min 0,000 mm 2,0 UV-I 217 W/m 12,3 C 16,6 C 0,0 km/h (0 Bft) 0,00 %
02.10.2014 10:30 16,1 C 74 % 1027,0 hPa 0,0 l/m 0,0 km/h (0 Bft) SO 130 0 min 0,000 mm 3,0 UV-I 162 W/m 11,5 C 16,1 C 0,0 km/h (0 Bft) 0,00 %
02.10.2014 10:45 16,6 C 72 % 1026,8 hPa 0,0 l/m 0,0 km/h (0 Bft) S 180 0 min 0,000 mm 3,0 UV-I 238 W/m 11,5 C 16,6 C 0,0 km/h (0 Bft) 0,00 %
02.10.2014 11:00 17,0 C 70 % 1026,7 hPa 0,0 l/m 0,0 km/h (0 Bft) O-SO 115 0 min 0,000 mm 3,0 UV-I 293 W/m 11,5 C 17,0 C 0,0 km/h (0 Bft) 0,00 %
02.10.2014 11:15 16,4 C 72 % 1027,1 hPa 0,0 l/m 0,0 km/h (0 Bft) S 176 0 min 0,000 mm 2,0 UV-I 210 W/m 11,3 C 16,4 C 0,0 km/h (0 Bft) 0,00 %
02.10.2014 11:30 15,8 C 75 % 1027,3 hPa 0,0 l/m 0,0 km/h (0 Bft) S 180 0 min 0,000 mm 2,0 UV-I 142 W/m 11,4 C 15,8 C 0,0 km/h (0 Bft) 0,00 %
02.10.2014 11:45 16,3 C 69 % 1026,6 hPa 0,0 l/m 0,0 km/h (0 Bft) N 351 15 min 0,000 mm 4,0 UV-I 390 W/m 10,6 C 16,3 C 0,0 km/h (0 Bft) 0,00 %
02.10.2014 12:00 18,2 C 62 % 1026,8 hPa 0,0 l/m 0,0 km/h (0 Bft) O 98 15 min 0,000 mm 4,0 UV-I 465 W/m 10,8 C 18,2 C 0,0 km/h (0 Bft) 0,00 %
02.10.2014 12:15 17,9 C 65 % 1026,6 hPa 0,0 l/m 0,7 km/h (0 Bft) N-NO 24 15 min 0,000 mm 4,0 UV-I 443 W/m 11,2 C 17,9 C 4,0 km/h (1 Bft) 0,00 %
02.10.2014 12:30 17,0 C 68 % 1027,1 hPa 0,0 l/m 0,4 km/h (0 Bft) N-NW 340 0 min 0,000 mm 2,0 UV-I 175 W/m 11,0 C 17,0 C 4,0 km/h (1 Bft) 0,00 %
02.10.2014 12:45 16,5 C 67 % 1026,6 hPa 0,0 l/m 0,0 km/h (0 Bft) SW 226 15 min 0,000 mm 4,0 UV-I 473 W/m 10,4 C 16,5 C 0,0 km/h (0 Bft) 0,00 %
02.10.2014 13:00 17,1 C 62 % 1026,6 hPa 0,0 l/m 0,0 km/h (0 Bft) SW 230 0 min 0,000 mm 2,0 UV-I 178 W/m 9,8 C 17,1 C 0,0 km/h (0 Bft) 0,00 %
02.10.2014 13:15 16,8 C 66 % 1027,2 hPa 0,0 l/m 0,0 km/h (0 Bft) O 90 0 min 0,000 mm 3,0 UV-I 264 W/m 10,4 C 16,8 C 0,0 km/h (0 Bft) 0,00 %
02.10.2014 13:30 17,9 C 62 % 1026,2 hPa 0,0 l/m 0,0 km/h (0 Bft) S-SW 195 0 min 0,000 mm 3,0 UV-I 224 W/m 10,5 C 17,9 C 0,0 km/h (0 Bft) 0,00 %
02.10.2014 13:45 18,2 C 62 % 1026,5 hPa 0,0 l/m 0,4 km/h (0 Bft) N-NO 28 0 min 0,000 mm 3,0 UV-I 206 W/m 10,8 C 18,2 C 4,0 km/h (1 Bft) 0,00 %
02.10.2014 14:00 17,9 C 56 % 1026,0 hPa 0,0 l/m 0,0 km/h (0 Bft) O-NO 59 0 min 0,000 mm 3,0 UV-I 260 W/m 9,0 C 17,9 C 0,0 km/h (0 Bft) 0,00 %
02.10.2014 14:15 18,3 C 58 % 1026,2 hPa 0,0 l/m 0,0 km/h (0 Bft) S-SW 197 0 min 0,000 mm 2,0 UV-I 158 W/m 9,9 C 18,3 C 0,0 km/h (0 Bft) 0,00 %
02.10.2014 14:30 18,3 C 55 % 1025,6 hPa 0,0 l/m 0,0 km/h (0 Bft) O-SO 123 0 min 0,000 mm 3,0 UV-I 208 W/m 9,1 C 18,3 C 0,0 km/h (0 Bft) 0,00 %
02.10.2014 14:45 19,2 C 50 % 1025,9 hPa 0,0 l/m 0,0 km/h (0 Bft) SO 131 0 min 0,000 mm 3,0 UV-I 293 W/m 8,5 C 19,2 C 0,0 km/h (0 Bft) 0,00 %
02.10.2014 15:00 19,8 C 52 % 1025,5 hPa 0,0 l/m 0,0 km/h (0 Bft) S 189 15 min 0,000 mm 3,0 UV-I 301 W/m 9,7 C 19,8 C 0,0 km/h (0 Bft) 0,00 %
02.10.2014 15:15 20,0 C 51 % 1025,3 hPa 0,0 l/m 0,0 km/h (0 Bft) S 175 0 min 0,000 mm 2,0 UV-I 264 W/m 9,6 C 20,0 C 0,0 km/h (0 Bft) 0,00 %
02.10.2014 15:30 19,7 C 50 % 1025,2 hPa 0,0 l/m 2,9 km/h (1 Bft) O-SO 105 15 min 0,000 mm 2,0 UV-I 284 W/m 9,0 C 19,7 C 7,9 km/h (2 Bft) 0,00 %
02.10.2014 15:45 19,1 C 54 % 1025,7 hPa 0,0 l/m 0,0 km/h (0 Bft) W-SW 256 0 min 0,000 mm 2,0 UV-I 186 W/m 9,6 C 19,1 C 0,0 km/h (0 Bft) 0,00 %
02.10.2014 16:00 18,7 C 55 % 1025,9 hPa 0,0 l/m 0,4 km/h (0 Bft) N-NO 26 0 min 0,000 mm 1,0 UV-I 157 W/m 9,5 C 18,7 C 4,0 km/h (1 Bft) 0,00 %
02.10.2014 16:15 18,8 C 56 % 1025,6 hPa 0,0 l/m 0,0 km/h (0 Bft) O-SO 121 0 min 0,000 mm 1,0 UV-I 129 W/m 9,8 C 18,8 C 0,0 km/h (0 Bft) 0,00 %
02.10.2014 16:30 18,7 C 57 % 1025,4 hPa 0,0 l/m 0,0 km/h (0 Bft) SO 137 0 min 0,000 mm 1,0 UV-I 142 W/m 10,0 C 18,7 C 0,0 km/h (0 Bft) 0,00 %
02.10.2014 16:45 18,5 C 63 % 1025,3 hPa 0,0 l/m 0,0 km/h (0 Bft) O-SO 106 0 min 0,000 mm 1,0 UV-I 129 W/m 11,3 C 18,5 C 0,0 km/h (0 Bft) 0,00 %
02.10.2014 17:00 18,1 C 62 % 1025,0 hPa 0,0 l/m 0,0 km/h (0 Bft) NW 325 0 min 0,000 mm 1,0 UV-I 141 W/m 10,7 C 18,1 C 0,0 km/h (0 Bft) 0,00 %
02.10.2014 17:15 18,1 C 62 % 1025,6 hPa 0,0 l/m 0,0 km/h (0 Bft) O 101 0 min 0,000 mm 1,0 UV-I 115 W/m 10,7 C 18,1 C 0,0 km/h (0 Bft) 0,00 %
02.10.2014 17:30 17,7 C 62 % 1025,7 hPa 0,0 l/m 0,0 km/h (0 Bft) O 97 0 min 0,000 mm 1,0 UV-I 94 W/m 10,3 C 17,7 C 0,0 km/h (0 Bft) 0,00 %
02.10.2014 17:45 17,3 C 62 % 1026,0 hPa 0,0 l/m 0,0 km/h (0 Bft) O-NO 65 0 min 0,000 mm 1,0 UV-I 75 W/m 9,9 C 17,3 C 0,0 km/h (0 Bft) 0,00 %
02.10.2014 18:00 16,9 C 66 % 1026,0 hPa 0,0 l/m 0,4 km/h (0 Bft) O-NO 65 0 min 0,000 mm 0,0 UV-I 34 W/m 10,5 C 16,9 C 4,0 km/h (1 Bft) 0,00 %
02.10.2014 18:15 16,5 C 66 % 1026,1 hPa 0,0 l/m 0,4 km/h (0 Bft) NO 47 0 min 0,000 mm 0,0 UV-I 10 W/m 10,1 C 16,5 C 4,0 km/h (1 Bft) 0,00 %
02.10.2014 18:30 16,1 C 67 % 1026,3 hPa 0,0 l/m 0,0 km/h (0 Bft) O 98 0 min 0,000 mm 0,0 UV-I 0 W/m 10,0 C 16,1 C 0,0 km/h (0 Bft) 0,00 %
02.10.2014 18:45 15,7 C 69 % 1026,4 hPa 0,0 l/m 0,0 km/h (0 Bft) NW 319 0 min 0,000 mm 0,0 UV-I 0 W/m 10,0 C 15,7 C 0,0 km/h (0 Bft) 0,00 %
02.10.2014 19:00 15,3 C 71 % 1026,5 hPa 0,0 l/m 0,0 km/h (0 Bft) W 271 0 min 0,000 mm 0,0 UV-I 0 W/m 10,1 C 15,3 C 0,0 km/h (0 Bft) 0,00 %
02.10.2014 19:15 15,1 C 70 % 1026,6 hPa 0,0 l/m 1,4 km/h (1 Bft) NO 36 0 min 0,000 mm 0,0 UV-I 0 W/m 9,7 C 15,1 C 4,0 km/h (1 Bft) 0,00 %
02.10.2014 19:30 14,9 C 71 % 1026,6 hPa 0,0 l/m 0,0 km/h (0 Bft) O 97 0 min 0,000 mm 0,0 UV-I 0 W/m 9,7 C 14,9 C 0,0 km/h (0 Bft) 0,00 %
02.10.2014 19:45 14,7 C 72 % 1026,8 hPa 0,0 l/m 0,4 km/h (0 Bft) O-NO 78 0 min 0,000 mm 0,0 UV-I 0 W/m 9,7 C 14,7 C 4,0 km/h (1 Bft) 0,00 %
02.10.2014 20:00 14,5 C 72 % 1026,7 hPa 0,0 l/m 1,4 km/h (1 Bft) NO 41 0 min 0,000 mm 0,0 UV-I 0 W/m 9,5 C 14,5 C 4,0 km/h (1 Bft) 0,00 %
02.10.2014 20:15 14,4 C 73 % 1026,7 hPa 0,0 l/m 0,0 km/h (0 Bft) S 174 0 min 0,000 mm 0,0 UV-I 0 W/m 9,6 C 14,4 C 0,0 km/h (0 Bft) 0,00 %
02.10.2014 20:30 14,2 C 75 % 1026,7 hPa 0,0 l/m 0,0 km/h (0 Bft) O-SO 116 0 min 0,000 mm 0,0 UV-I 0 W/m 9,8 C 14,2 C 0,0 km/h (0 Bft) 0,00 %
02.10.2014 20:45 14,0 C 75 % 1026,9 hPa 0,0 l/m 0,0 km/h (0 Bft) S 183 0 min 0,000 mm 0,0 UV-I 0 W/m 9,6 C 14,0 C 0,0 km/h (0 Bft) 0,00 %
02.10.2014 21:00 13,9 C 76 % 1026,7 hPa 0,0 l/m 0,0 km/h (0 Bft) O-NO 61 0 min 0,000 mm 0,0 UV-I 0 W/m 9,7 C 13,9 C 0,0 km/h (0 Bft) 0,00 %
02.10.2014 21:15 13,6 C 77 % 1027,0 hPa 0,0 l/m 0,0 km/h (0 Bft) S 174 0 min 0,000 mm 0,0 UV-I 0 W/m 9,6 C 13,6 C 0,0 km/h (0 Bft) 0,00 %
02.10.2014 21:30 13,2 C 77 % 1027,1 hPa 0,0 l/m 0,0 km/h (0 Bft) S-SO 165 0 min 0,000 mm 0,0 UV-I 0 W/m 9,3 C 13,2 C 0,0 km/h (0 Bft) 0,00 %
02.10.2014 21:45 12,9 C 79 % 1027,0 hPa 0,0 l/m 0,0 km/h (0 Bft) S-SO 159 0 min 0,000 mm 0,0 UV-I 0 W/m 9,3 C 12,9 C 0,0 km/h (0 Bft) 0,00 %
02.10.2014 22:00 12,6 C 79 % 1027,1 hPa 0,0 l/m 0,0 km/h (0 Bft) SO 145 0 min 0,000 mm 0,0 UV-I 0 W/m 9,1 C 12,6 C 0,0 km/h (0 Bft) 0,00 %
02.10.2014 22:15 12,5 C 80 % 1027,0 hPa 0,0 l/m 0,0 km/h (0 Bft) S 187 0 min 0,000 mm 0,0 UV-I 0 W/m 9,1 C 12,5 C 0,0 km/h (0 Bft) 0,00 %
02.10.2014 22:30 12,1 C 82 % 1027,0 hPa 0,0 l/m 0,0 km/h (0 Bft) S-SO 149 0 min 0,000 mm 0,0 UV-I 0 W/m 9,1 C 12,1 C 0,0 km/h (0 Bft) 0,00 %
02.10.2014 22:45 11,9 C 83 % 1027,1 hPa 0,0 l/m 0,0 km/h (0 Bft) S 186 0 min 0,000 mm 0,0 UV-I 0 W/m 9,1 C 11,9 C 0,0 km/h (0 Bft) 0,00 %
02.10.2014 23:00 11,8 C 84 % 1026,9 hPa 0,0 l/m 0,0 km/h (0 Bft) SO 141 0 min 0,000 mm 0,0 UV-I 0 W/m 9,2 C 11,8 C 0,0 km/h (0 Bft) 0,00 %
02.10.2014 23:15 11,8 C 83 % 1027,0 hPa 0,0 l/m 0,0 km/h (0 Bft) SO 125 0 min 0,000 mm 0,0 UV-I 0 W/m 9,0 C 11,8 C 0,0 km/h (0 Bft) 0,00 %
02.10.2014 23:30 11,7 C 82 % 1027,0 hPa 0,0 l/m 0,4 km/h (0 Bft) O-SO 114 0 min 0,000 mm 0,0 UV-I 0 W/m 8,7 C 11,7 C 4,0 km/h (1 Bft) 0,00 %
02.10.2014 23:45 11,6 C 81 % 1027,0 hPa 0,0 l/m 0,4 km/h (0 Bft) O-SO 109 0 min 0,000 mm 0,0 UV-I 0 W/m 8,5 C 11,6 C 4,0 km/h (1 Bft) 0,00 %
_ Min-Zeit 23:45 14:45 17:00 - 00:00 - - - - - - 23:45 23:45 00:00 00:00
Minimum _ 11,6 C 50 % 1025,0 hPa - 0,0 km/h (0 Bft) - - - - - - 8,5 C 11,6 C 0,0 km/h (0 Bft) 0,00 %
_ Max-Zeit 15:15 03:15 07:45 00:00 15:30 - - 09:45 00:00 11:45 12:45 09:30 15:15 15:30 00:00
Maximum _ 20,0 C 90 % 1028,0 hPa 0,0 l/m 2,9 km/h
O-SO (1 Bft)
- - 15 min 0,000 mm 4,0 UV-I 473 W/m 12,4 C 20,0 C 7,9 km/h
O-SO (2 Bft)
0,00 %
Durchschnitt _ 15,0 C 77 % 1026,7 hPa #0,0 l/m 0,1 km/h (0 Bft) NO - #1:45 h #0,000 mm 2,1 UV-I 189 W/m 10,7 C 15,0 C 0,5 km/h (0 Bft) 0,00 %